Weather History for Hailey, ID

Change the Weather History Date:

Saturday, August 24, 2013

  Actual Average Record
Temperature  
Mean Temperature 66 °F -  
Max Temperature 78 °F 79 °F 91 °F (1999)
Min Temperature 55 °F 49 °F 39 °F (2004)
Cooling Degree Days 2    
Growing Degree Days 16 (Base 50)    
Moisture  
Dew Point 47 °F    
Average Humidity 59    
Maximum Humidity 72    
Minimum Humidity 39    
Precipitation  
Precipitation 0.00 in - - ()
Sea Level Pressure  
Sea Level Pressure 30.04 in    
Wind  
Wind Speed 7 mph (WNW)    
Max Wind Speed 12 mph    
Max Gust Speed 17 mph    
Visibility 8 miles    
Events Rain , Thunderstorm    
Averages and records for this station are not official NWS values.
T = Trace of Precipitation, MM = Missing Value Source: NWS Daily Summary

Daily Weather History Graph

Daily Weather History Graph

Search for Another Location

Airport:

Trip Planner

Search our weather history database for the weather conditions in past years. The results will help you decide how hot, cold, wet, or windy it might be!

Date:

Astronomy

Aug. 24, 2013 Rise Set
Actual Time 6:52 AM MDT 8:25 PM MDT
Civil Twilight 6:22 AM MDT 8:55 PM MDT
Nautical Twilight 5:45 AM MDT 9:31 PM MDT
Astronomical Twilight 5:06 AM MDT 10:10 PM MDT
Moon 10:12 PM MDT (8/24) 11:05 AM MDT (8/24)
Length of Visible Light 14h 33m
Length of Day
13h 33m
Waning Gibbous, 84% of the Moon is Illuminated
Aug 24
Waning Gibbous
Aug 28
Last Quarter
Sep 5
New
Sep 12
First Quarter
Sep 19
Full

Hourly Weather History & Observations

Time (MDT) Temp. Dew Point Humidity Pressure Visibility Wind Dir Wind Speed Gust Speed Precip Events Conditions
12:15 AM 62.6 °F 50.0 °F 63% 30.02 in 10.0 mi NW 5.8 mph - N/A   Clear
12:35 AM 62.6 °F 50.0 °F 63% 30.02 in 10.0 mi WNW 6.9 mph - N/A   Scattered Clouds
12:55 AM 62.6 °F 50.0 °F 63% 30.02 in 10.0 mi WNW 6.9 mph - N/A   Mostly Cloudy
1:15 AM 62.6 °F 48.2 °F 59% 30.02 in 10.0 mi NW 5.8 mph - N/A   Scattered Clouds
1:35 AM 60.8 °F 48.2 °F 63% 30.02 in 10.0 mi NW 5.8 mph - N/A   Clear
1:55 AM 60.8 °F 46.4 °F 59% 30.02 in 10.0 mi NW 6.9 mph - N/A   Clear
2:15 AM 60.8 °F 46.4 °F 59% 30.02 in 10.0 mi NW 8.1 mph - N/A   Clear
2:35 AM 60.8 °F 46.4 °F 59% 30.02 in 10.0 mi WNW 4.6 mph - N/A   Clear
2:55 AM 60.8 °F 46.4 °F 59% 30.02 in 10.0 mi WNW 5.8 mph - N/A   Clear
3:15 AM 60.8 °F 44.6 °F 55% 30.02 in 7.0 mi WNW 3.5 mph - N/A   Clear
3:35 AM 59.0 °F 44.6 °F 59% 30.04 in 10.0 mi NW 4.6 mph - N/A   Clear
3:55 AM 59.0 °F 44.6 °F 59% 30.04 in 10.0 mi NW 5.8 mph - N/A   Clear
4:15 AM 59.0 °F 44.6 °F 59% 30.05 in 10.0 mi NW 9.2 mph - N/A   Clear
4:35 AM 57.2 °F 44.6 °F 63% 30.05 in 7.0 mi WNW 6.9 mph - N/A   Clear
4:55 AM 55.4 °F 42.8 °F 63% 30.06 in 7.0 mi NW 6.9 mph - N/A   Clear
5:15 AM 55.4 °F 42.8 °F 63% 30.05 in 7.0 mi NW 5.8 mph - N/A   Clear
5:35 AM 55.4 °F 42.8 °F 63% 30.06 in 7.0 mi NW 9.2 mph - N/A   Clear
5:55 AM 55.4 °F 42.8 °F 63% 30.06 in 5.0 mi NNW 6.9 mph - N/A   Haze
6:15 AM 55.4 °F 42.8 °F 63% 30.05 in 5.0 mi NW 8.1 mph - N/A   Haze
6:35 AM 55.4 °F 42.8 °F 63% 30.05 in 5.0 mi NW 8.1 mph - N/A   Haze
6:47 AM 55.4 °F 42.8 °F 63% 30.05 in 4.0 mi West 4.6 mph - N/A   Smoke
6:55 AM 55.4 °F 42.8 °F 63% 30.05 in 5.0 mi NW 4.6 mph - N/A   Haze
7:47 AM 55.4 °F 42.8 °F 63% 30.06 in 5.0 mi WNW 9.2 mph - N/A   Smoke
8:47 AM 57.2 °F 42.8 °F 59% 30.08 in 5.0 mi WNW 11.5 mph - N/A   Smoke
9:50 AM 62.6 °F 42.8 °F 48% 30.09 in 5.0 mi WNW 8.1 mph - N/A   Smoke
10:47 AM 66.2 °F 44.6 °F 46% 30.08 in 5.0 mi WNW 5.8 mph - N/A   Smoke
11:47 AM 71.6 °F 48.2 °F 43% 30.08 in 10.0 mi ESE 8.1 mph - N/A   Scattered Clouds
12:48 PM 75.2 °F 51.8 °F 44% 30.05 in 10.0 mi SE 6.9 mph - N/A   Scattered Clouds
1:54 PM 75.2 °F 51.8 °F 44% 30.04 in 10.0 mi SSE 11.5 mph 17.3 mph N/A   Mostly Cloudy
2:48 PM 78.8 °F 51.8 °F 39% 30.03 in 10.0 mi SE 9.2 mph 16.1 mph N/A   Mostly Cloudy
3:47 PM 73.4 °F 53.6 °F 50% 30.01 in 10.0 mi South 9.2 mph - N/A Thunderstorm Thunderstorm
4:50 PM 62.6 °F 51.8 °F 68% 30.01 in 10.0 mi North 6.9 mph - N/A Thunderstorm Thunderstorm
5:49 PM 69.8 °F 48.2 °F 46% 30.01 in 10.0 mi WNW 9.2 mph - N/A   Mostly Cloudy
6:47 PM 69.8 °F 51.8 °F 53% 30.01 in 10.0 mi ESE 9.2 mph - N/A Rain , Thunderstorm Light Thunderstorms and Rain
7:47 PM 68.0 °F 53.6 °F 60% 30.02 in 10.0 mi Calm Calm - N/A Thunderstorm Thunderstorm
8:50 PM 64.4 °F 53.6 °F 68% 30.03 in 10.0 mi SW 8.1 mph - N/A   Mostly Cloudy
9:50 PM 62.6 °F 53.6 °F 72% 30.07 in 10.0 mi Calm Calm - N/A   Mostly Cloudy
10:47 PM 62.6 °F 51.8 °F 68% 30.07 in 10.0 mi West 6.9 mph - N/A   Mostly Cloudy
11:15 PM 60.8 °F 51.8 °F 72% 30.08 in 10.0 mi WNW 4.6 mph - N/A   Mostly Cloudy
11:35 PM 60.8 °F 51.8 °F 72% 30.08 in 10.0 mi NW 9.2 mph - N/A   Scattered Clouds
11:55 PM 60.8 °F 51.8 °F 72% 30.08 in 10.0 mi WNW 5.8 mph - N/A   Scattered Clouds